Location: ???????????
(55.5758°N, 38.4970°E)
Time: 16:45:20
(UTC+00:00)

Cosmos 2228 - Pass Details

Date: 15 November 2025
Orbit: 565 x 588 km, 82.5° (Epoch: 14 December)

Event Time Altitude Azimuth Distance (km) Brightness Sun altitude
Rises 03:56:05 0° 348° (NNW) 2,830 6.1 -9.0°
Reaches altitude 10° 03:58:18 10° 350° (N) 1,928 5.3 -8.7°
Maximum altitude 04:02:34 76° 77° (ENE) 615 3.2 -8.1°
Drops below altitude 10° 04:06:48 10° 163° (SSE) 1,917 6.2 -7.6°
Sets 04:09:00 0° 165° (SSE) 2,813 7.0 -7.3°
